Location: ??????
(30.0081°N, 31.2109°E)
Time: 07:07:34
(UTC+00:00)

COSMOS 2428 - Pass Details

Date: 03 March 2021
Orbit: 845 x 858 km, 70.9° (Epoch: 16 April)

Event Time Altitude Azimuth Distance (km) Brightness Sun altitude
Rises 17:29:41 0° 194° (SSW) 3,388 6.0 -21.1°
Reaches altitude 10° 17:32:08 10° 192° (SSW) 2,456 5.2 -21.7°
Maximum altitude 17:37:45 75° 107° (ESE) 875 2.5 -22.9°
Enters shadow 17:42:23 16° 25° (NNE) 2,088 4.6 -23.9°
